�N����,����,�~����,�C��,���x,�C��,����,���ϕ���,�ő�u�ԕ���,�ő厞����,���˗�,�I�_���x,�n�����x,�ő啗���N��,DTYPE
"17/09/21","00:10",0.0,17.3,93.8,1006.7,314.3,1.7,2.2,330.0,0.00,16.3,22.1,"00:02:56",1
"17/09/21","00:20",0.0,17.3,93.8,1006.9,299.9,1.5,2.2,315.3,0.00,16.3,21.7,"00:17:44",1
"17/09/21","00:30",0.0,17.2,93.7,1006.4,316.7,1.5,2.4,315.8,0.00,16.2,22.0,"00:27:12",1
"17/09/21","00:40",0.0,17.2,93.6,1006.7,335.1,1.2,2.9,336.7,0.00,16.2,21.9,"00:31:36",1
"17/09/21","00:50",0.0,17.0,93.5,1006.7,318.4,1.1,1.7,323.8,0.00,16.0,21.9,"00:40:40",1
"17/09/21","01:00",0.0,16.8,93.7,1006.7,331.2,1.1,1.8,336.6,0.00,15.8,21.8,"00:51:20",1
"17/09/21","01:10",0.0,16.7,93.9,1006.7,315.4,0.8,1.7,354.3,0.00,15.8,21.9,"01:09:54",1
"17/09/21","01:20",0.0,16.5,93.9,1006.7,331.3,1.3,2.1,306.6,0.00,15.6,21.7,"01:17:44",1
"17/09/21","01:30",0.0,16.3,94.3,1006.9,325.2,1.0,1.9,341.4,0.00,15.4,21.6,"01:28:52",1
"17/09/21","01:40",0.0,16.2,94.4,1006.9,327.7,0.6,1.8,328.6,0.00,15.3,21.8,"01:30:16",1
"17/09/21","01:50",0.0,16.3,94.7,1007.1,356.3,0.8,1.7,358.5,0.00,15.5,21.5,"01:43:52",1
"17/09/21","02:00",0.0,16.3,94.8,1006.9,335.4,0.6,1.2,322.3,0.00,15.5,21.4,"01:51:28",1
"17/09/21","02:10",0.0,16.3,94.6,1007.4,333.6,0.5,1.0,319.3,0.00,15.5,21.6,"02:02:34",1
"17/09/21","02:20",0.0,16.0,94.6,1006.9,317.2,0.6,1.2,334.3,0.00,15.2,21.3,"02:16:08",1
"17/09/21","02:30",0.0,15.8,94.7,1006.7,289.1,0.6,1.2,332.5,0.00,15.0,21.3,"02:23:36",1
"17/09/21","02:40",0.0,15.9,95.0,1007.1,334.9,1.1,2.0,352.8,0.00,15.1,21.3,"02:32:32",1
"17/09/21","02:50",0.0,15.7,95.4,1007.4,323.6,1.2,2.4,342.6,0.00,15.0,21.3,"02:48:00",1
"17/09/21","03:00",0.0,15.8,95.7,1007.4,286.3,0.8,2.0,335.5,0.00,15.2,21.2,"02:57:52",1
"17/09/21","03:10",0.0,15.8,96.0,1007.6,334.0,1.3,2.4,338.4,0.00,15.2,21.3,"03:03:28",1
"17/09/21","03:20",0.0,16.0,95.9,1007.1,350.1,1.1,2.0,331.9,0.00,15.4,21.1,"03:17:04",1
"17/09/21","03:30",0.0,15.8,95.8,1007.6,298.4,0.8,1.7,337.7,0.00,15.2,21.0,"03:20:16",1
"17/09/21","03:40",0.0,15.6,95.7,1007.1,5.9,0.3,0.9,326.3,0.00,15.0,21.1,"03:30:02",1
"17/09/21","03:50",0.0,15.4,95.8,1007.4,295.3,0.5,1.0,322.8,0.00,14.8,21.1,"03:40:08",1
"17/09/21","04:00",0.0,15.7,96.5,1007.6,342.2,1.2,2.5,347.0,0.00,15.2,20.9,"03:56:24",1
"17/09/21","04:10",0.0,15.8,96.0,1007.8,308.0,0.6,1.8,318.4,0.00,15.2,20.9,"04:00:40",1
"17/09/21","04:20",0.0,15.7,96.1,1007.4,299.8,0.6,1.2,314.7,0.00,15.1,21.0,"04:10:24",1
"17/09/21","04:30",0.0,15.7,96.4,1007.4,298.4,1.0,1.9,344.1,0.00,15.2,20.9,"04:29:04",1
"17/09/21","04:40",0.0,15.7,96.4,1007.4,336.4,0.8,1.7,347.9,0.00,15.2,20.8,"04:30:08",1
"17/09/21","04:50",0.0,15.6,96.3,1007.6,328.9,0.8,1.9,341.1,0.00,15.1,20.8,"04:48:40",1
"17/09/21","05:00",0.0,15.6,96.5,1007.8,261.5,0.8,1.8,312.8,0.00,15.1,20.7,"04:54:16",1
"17/09/21","05:10",0.0,15.5,96.3,1007.8,334.1,0.6,1.4,315.5,0.00,15.0,20.6,"05:00:08",1
"17/09/21","05:20",0.0,15.3,96.3,1007.6,289.1,1.0,1.7,309.1,0.00,14.8,20.7,"05:13:28",1
"17/09/21","05:30",0.0,15.3,96.8,1007.8,311.5,1.0,1.8,308.6,0.00,14.8,20.7,"05:22:16",1
"17/09/21","05:40",0.0,15.4,96.8,1007.8,329.2,0.7,1.7,326.4,0.00,14.9,20.6,"05:38:40",1
"17/09/21","05:50",0.0,15.5,96.7,1007.8,314.0,0.7,1.8,315.7,0.00,15.0,20.7,"05:44:56",1
"17/09/21","06:00",0.0,15.5,96.9,1008.1,12.0,0.5,1.1,347.3,0.00,15.1,20.6,"05:54:24",1
"17/09/21","06:10",0.0,15.6,96.8,1007.8,295.6,0.5,1.1,312.1,0.00,15.1,20.2,"06:07:52",1
"17/09/21","06:20",0.0,15.9,97.0,1008.6,311.8,0.6,1.2,321.5,0.00,15.5,20.7,"06:17:44",1
"17/09/21","06:30",0.0,16.1,96.9,1008.6,314.0,1.0,1.3,322.3,0.01,15.6,20.5,"06:25:12",1
"17/09/21","06:40",0.0,16.3,96.9,1008.6,316.9,0.7,1.3,324.0,0.02,15.8,20.5,"06:31:12",1
"17/09/21","06:50",0.0,16.5,96.8,1008.3,310.1,1.0,1.8,332.6,0.02,16.0,20.6,"06:46:48",1
"17/09/21","07:00",0.0,17.3,96.5,1008.8,298.4,1.1,1.8,320.0,0.04,16.8,20.4,"06:50:16",1
"17/09/21","07:10",0.0,18.2,93.5,1008.6,309.7,0.6,1.8,302.0,0.06,17.2,20.6,"07:01:28",1
"17/09/21","07:20",0.0,19.1,89.0,1009.0,274.3,0.6,2.1,332.0,0.06,17.3,20.7,"07:16:16",1
"17/09/21","07:30",0.0,19.5,88.2,1008.8,261.4,0.5,1.1,320.4,0.08,17.5,20.5,"07:22:32",1
"17/09/21","07:40",0.0,19.3,86.6,1008.8,255.7,0.5,1.6,231.1,0.07,17.1,20.6,"07:32:56",1
"17/09/21","07:50",0.0,20.5,84.5,1008.8,264.6,0.3,0.8,256.9,0.16,17.8,20.7,"07:44:40",1
"17/09/21","08:00",0.0,20.8,83.0,1008.3,165.0,0.2,0.6,131.0,0.16,17.8,21.0,"07:50:48",1
"17/09/21","08:10",0.0,20.6,81.8,1009.0,237.0,0.3,1.0,222.3,0.17,17.4,20.7,"08:06:16",1
"17/09/21","08:20",0.0,20.6,80.3,1008.6,115.0,0.5,1.2,96.0,0.13,17.1,20.9,"08:11:52",1
"17/09/21","08:30",0.0,21.5,79.3,1008.8,14.3,0.5,1.7,344.3,0.23,17.8,21.1,"08:22:08",1
"17/09/21","08:40",0.0,22.1,76.3,1009.0,232.6,0.3,2.1,227.8,0.29,17.8,21.2,"08:36:40",1
"17/09/21","08:50",0.0,22.1,74.8,1009.3,194.7,0.8,2.2,216.9,0.30,17.5,21.3,"08:46:00",1
"17/09/21","09:00",0.0,22.6,73.5,1009.0,193.1,0.6,1.7,229.2,0.30,17.7,21.5,"08:53:20",1
"17/09/21","09:10",0.0,22.8,72.6,1009.0,233.9,0.7,1.4,232.4,0.32,17.7,21.5,"09:09:04",1
"17/09/21","09:20",0.0,24.0,70.8,1008.6,149.1,0.8,2.0,198.3,0.42,18.4,21.7,"09:10:40",1
"17/09/21","09:30",0.0,24.3,68.3,1008.3,251.7,0.5,1.9,113.2,0.44,18.1,21.8,"09:20:32",1
"17/09/21","09:40",0.0,24.6,65.2,1008.1,324.1,0.6,1.6,331.3,0.44,17.7,22.0,"09:36:40",1
"17/09/21","09:50",0.0,25.1,66.2,1007.1,140.0,0.7,1.7,139.8,0.47,18.4,22.2,"09:48:40",1
"17/09/21","10:00",0.0,25.2,59.5,1007.4,355.8,0.8,2.9,345.7,0.49,16.8,22.4,"09:57:28",1
"17/09/21","10:10",0.0,24.8,61.1,1007.6,11.8,1.7,3.9,15.2,0.39,16.8,22.5,"10:03:44",1
"17/09/21","10:20",0.0,25.6,58.0,1007.8,340.6,1.1,3.1,4.3,0.54,16.8,22.6,"10:10:16",1
"17/09/21","10:30",0.0,26.1,57.7,1007.6,9.2,1.2,3.2,326.5,0.54,17.2,22.9,"10:29:36",1
"17/09/21","10:40",0.0,25.8,55.6,1007.6,12.1,1.7,4.1,351.6,0.55,16.3,22.9,"10:35:12",1
"17/09/21","10:50",0.0,26.6,51.9,1007.1,3.5,1.5,3.2,346.6,0.61,16.0,23.3,"10:45:36",1
"17/09/21","11:00",0.0,26.8,51.9,1007.6,25.2,1.2,3.7,8.7,0.52,16.1,23.4,"10:56:56",1
"17/09/21","11:10",0.0,26.2,49.8,1007.6,16.6,1.7,4.8,347.9,0.50,14.9,23.6,"11:07:12",1
"17/09/21","11:20",0.0,24.4,58.2,1006.9,336.3,2.1,4.5,340.5,0.13,15.7,23.7,"11:16:16",1
"17/09/21","11:30",0.0,26.1,53.1,1006.4,314.5,1.7,3.6,327.7,0.51,15.8,23.7,"11:26:48",1
"17/09/21","11:40",0.0,26.8,52.7,1006.2,333.7,1.6,5.6,345.0,0.57,16.4,23.9,"11:39:44",1
"17/09/21","11:50",0.0,27.3,50.3,1006.9,338.7,1.7,4.4,332.5,0.60,16.1,24.2,"11:40:56",1
"17/09/21","12:00",0.0,25.8,55.2,1006.4,336.5,2.1,3.9,345.2,0.36,16.2,24.4,"11:54:32",1
"17/09/21","12:10",0.0,26.7,51.6,1006.2,334.3,1.8,4.1,339.7,0.48,16.0,24.4,"12:01:20",1
"17/09/21","12:20",0.0,27.4,49.2,1006.2,358.1,2.0,4.5,352.6,0.58,15.9,24.6,"12:11:20",1
"17/09/21","12:30",0.0,27.6,47.2,1006.2,7.6,2.0,5.6,49.3,0.57,15.4,24.7,"12:28:16",1
"17/09/21","12:40",0.0,27.6,46.9,1006.2,334.5,1.7,4.9,331.2,0.56,15.3,24.8,"12:30:48",1
"17/09/21","12:50",0.0,27.8,45.0,1006.4,313.6,2.0,4.9,349.3,0.59,14.8,25.0,"12:44:24",1
"17/09/21","13:00",0.0,28.2,47.1,1006.4,351.4,1.5,3.4,338.7,0.55,15.9,25.3,"12:54:00",1
"17/09/21","13:10",0.0,27.8,49.1,1006.2,354.7,1.8,3.9,4.1,0.52,16.2,25.5,"13:00:16",1
"17/09/21","13:20",0.0,27.6,48.1,1006.2,333.5,1.7,3.3,309.8,0.52,15.7,25.4,"13:15:36",1
"17/09/21","13:30",0.0,28.4,43.3,1006.4,359.5,1.0,2.7,341.2,0.51,14.8,25.6,"13:22:32",1
"17/09/21","13:40",0.0,27.6,46.3,1006.2,19.9,1.1,4.3,334.3,0.37,15.1,25.6,"13:36:24",1
"17/09/21","13:50",0.0,27.5,47.8,1005.7,5.3,1.3,2.7,350.6,0.34,15.5,25.4,"13:46:00",1
"17/09/21","14:00",0.0,28.0,45.7,1005.7,338.0,1.7,3.5,344.4,0.49,15.2,25.6,"13:53:28",1
"17/09/21","14:10",0.0,26.6,45.1,1005.7,18.3,1.2,2.9,345.4,0.21,13.8,25.7,"14:02:08",1
"17/09/21","14:20",0.0,28.0,44.8,1005.5,352.4,1.7,4.8,347.5,0.44,14.9,25.6,"14:15:12",1
"17/09/21","14:30",0.0,27.9,44.4,1005.5,5.2,1.6,4.0,343.7,0.40,14.7,25.5,"14:21:28",1
"17/09/21","14:40",0.0,28.0,43.5,1006.0,358.3,1.5,3.2,128.1,0.40,14.5,25.5,"14:34:40",1
"17/09/21","14:50",0.0,27.7,45.2,1005.7,356.2,2.1,4.3,347.1,0.37,14.8,25.7,"14:48:08",1
"17/09/21","15:00",0.0,27.6,45.4,1005.5,355.3,1.7,4.2,345.2,0.34,14.8,25.7,"14:53:44",1
"17/09/21","15:10",0.0,27.3,44.3,1005.2,356.5,1.8,5.0,342.1,0.32,14.1,25.6,"15:04:40",1
"17/09/21","15:20",0.0,27.0,45.1,1004.8,339.1,2.1,4.5,326.5,0.29,14.1,25.5,"15:15:52",1
"17/09/21","15:30",0.0,26.3,48.7,1005.0,320.1,2.0,4.3,341.2,0.16,14.7,25.7,"15:20:48",1
"17/09/21","15:40",0.0,26.0,48.1,1005.2,347.6,1.7,3.7,337.4,0.11,14.2,25.5,"15:32:08",1
"17/09/21","15:50",0.0,25.6,50.6,1005.0,351.1,2.0,4.4,337.1,0.10,14.6,25.4,"15:44:24",1
"17/09/21","16:00",0.0,25.6,51.2,1005.2,342.3,2.0,4.0,331.0,0.10,14.8,25.5,"15:57:20",1
"17/09/21","16:10",0.0,25.7,52.7,1005.2,346.1,1.5,3.2,334.3,0.10,15.4,25.2,"16:02:40",1
"17/09/21","16:20",0.0,25.5,53.1,1005.7,342.0,1.6,3.5,338.8,0.11,15.3,25.1,"16:17:52",1
"17/09/21","16:30",0.0,25.7,53.6,1006.0,338.6,2.3,4.9,342.4,0.13,15.6,24.9,"16:26:24",1
"17/09/21","16:40",0.0,25.3,51.5,1006.0,334.8,2.3,4.1,334.8,0.06,14.6,25.0,"16:38:40",1
"17/09/21","16:50",0.0,24.5,54.0,1006.4,335.0,2.8,4.9,326.9,0.03,14.6,24.8,"16:43:52",1
"17/09/21","17:00",0.0,24.2,54.6,1006.7,330.3,2.5,4.4,353.1,0.04,14.5,24.7,"16:51:04",1
"17/09/21","17:10",0.0,23.9,57.0,1006.7,330.0,2.1,4.2,344.9,0.02,14.9,24.8,"17:00:48",1
"17/09/21","17:20",0.0,23.4,59.1,1006.7,333.4,2.1,4.9,341.0,0.01,15.0,24.7,"17:17:12",1
"17/09/21","17:30",0.0,22.9,61.0,1006.9,334.7,2.2,4.0,334.3,0.00,15.0,24.4,"17:25:28",1
"17/09/21","17:40",0.0,22.6,62.3,1006.9,333.2,2.5,5.7,336.9,0.00,15.1,24.3,"17:32:32",1
"17/09/21","17:50",0.0,22.3,63.6,1007.6,324.2,1.8,3.1,336.4,0.00,15.1,24.1,"17:40:48",1
"17/09/21","18:00",0.0,21.9,64.5,1007.4,287.0,0.8,3.3,319.2,0.00,14.9,24.1,"17:50:48",1
"17/09/21","18:10",0.0,21.5,66.0,1007.6,292.9,0.7,1.7,325.9,0.00,14.9,23.9,"18:05:12",1
"17/09/21","18:20",0.0,21.2,66.7,1007.8,294.7,1.2,2.6,322.0,0.00,14.8,23.8,"18:13:28",1
"17/09/21","18:30",0.0,21.1,67.5,1007.8,308.5,1.0,1.7,329.3,0.00,14.9,23.9,"18:22:32",1
"17/09/21","18:40",0.0,20.7,68.0,1007.6,321.4,1.1,2.2,331.9,0.00,14.6,23.5,"18:38:16",1
"17/09/21","18:50",0.0,20.6,68.2,1007.8,328.1,2.3,4.7,318.0,0.00,14.6,23.7,"18:48:48",1
"17/09/21","19:00",0.0,20.6,67.8,1007.6,328.7,2.2,3.7,341.6,0.00,14.5,23.3,"18:55:20",1
"17/09/21","19:10",0.0,20.5,67.2,1008.1,316.5,1.6,4.0,336.3,0.00,14.3,23.4,"19:01:28",1
"17/09/21","19:20",0.0,20.2,68.5,1008.6,294.6,1.0,2.6,326.5,0.00,14.3,23.3,"19:10:56",1
"17/09/21","19:30",0.0,19.5,71.7,1008.3,290.1,0.6,1.8,314.1,0.00,14.3,23.2,"19:29:28",1
"17/09/21","19:40",0.0,18.7,75.7,1008.6,288.4,0.8,1.6,328.8,0.00,14.4,23.1,"19:30:16",1
"17/09/21","19:50",0.0,18.8,76.7,1008.6,299.8,1.5,2.0,324.8,0.00,14.7,23.1,"19:47:44",1
"17/09/21","20:00",0.0,19.0,76.2,1008.1,285.3,1.1,1.9,318.7,0.00,14.8,23.1,"19:50:02",1
"17/09/21","20:10",0.0,19.1,76.3,1008.3,282.8,1.3,2.9,315.5,0.00,14.9,22.7,"20:03:44",1
"17/09/21","20:20",0.0,18.9,75.8,1008.6,272.5,1.1,1.8,267.9,0.00,14.6,22.7,"20:11:52",1
"17/09/21","20:30",0.0,18.5,76.9,1008.8,296.4,1.0,1.7,304.2,0.00,14.4,22.6,"20:26:56",1
"17/09/21","20:40",0.0,18.2,78.5,1008.8,297.5,1.0,2.0,320.6,0.00,14.4,22.7,"20:38:32",1
"17/09/21","20:50",0.0,18.1,79.6,1008.8,296.9,1.3,2.0,322.2,0.00,14.6,22.5,"20:41:04",1
"17/09/21","21:00",0.0,18.3,79.5,1009.0,291.4,1.1,1.4,301.2,0.00,14.7,22.7,"20:54:00",1
"17/09/21","21:10",0.0,18.1,79.8,1009.0,293.3,0.7,1.0,265.7,0.00,14.6,22.5,"21:00:48",1
"17/09/21","21:20",0.0,17.7,80.8,1009.0,316.6,1.3,2.0,328.5,0.00,14.4,22.2,"21:18:08",1
"17/09/21","21:30",0.0,17.7,83.6,1008.8,329.7,1.6,2.2,333.1,0.00,14.9,22.3,"21:28:16",1
"17/09/21","21:40",0.0,17.7,84.1,1009.3,327.2,1.6,2.1,329.7,0.00,15.0,22.3,"21:32:16",1
"17/09/21","21:50",0.0,17.7,84.8,1008.8,325.2,1.7,2.9,324.5,0.00,15.2,22.2,"21:41:36",1
"17/09/21","22:00",0.0,17.9,84.3,1009.3,330.5,1.7,2.5,343.8,0.00,15.3,22.3,"21:51:52",1
"17/09/21","22:10",0.0,17.8,84.4,1009.3,328.5,1.8,2.8,330.2,0.00,15.2,22.0,"22:08:40",1
"17/09/21","22:20",0.0,17.8,84.6,1009.3,330.1,2.1,3.3,327.4,0.00,15.2,21.9,"22:11:20",1
"17/09/21","22:30",0.0,17.8,84.9,1008.8,335.7,1.8,4.0,343.6,0.00,15.3,21.8,"22:25:28",1
"17/09/21","22:40",0.0,17.6,84.8,1008.8,321.1,1.8,2.5,332.9,0.00,15.1,21.8,"22:39:44",1
"17/09/21","22:50",0.0,17.7,85.1,1009.0,324.0,2.1,3.3,323.8,0.00,15.2,21.9,"22:43:04",1
"17/09/21","23:00",0.0,17.6,85.0,1009.0,320.8,2.1,2.6,338.6,0.00,15.1,21.7,"22:52:48",1
"17/09/21","23:10",0.0,17.7,85.4,1009.3,325.1,2.1,3.7,325.1,0.00,15.3,21.6,"23:04:08",1
"17/09/21","23:20",0.0,17.7,85.3,1009.5,332.0,2.1,3.2,334.4,0.00,15.2,21.6,"23:15:44",1
"17/09/21","23:30",0.0,17.7,85.6,1009.7,329.6,2.2,3.6,326.5,0.00,15.3,21.6,"23:24:24",1
"17/09/21","23:40",0.0,17.5,85.8,1009.7,331.0,2.1,2.9,335.9,0.00,15.1,21.5,"23:33:04",1
"17/09/21","23:50",0.0,17.3,86.6,1009.5,331.1,2.2,3.4,335.2,0.00,15.1,21.4,"23:48:56",1
"17/09/21","24:00",0.0,17.1,87.2,1009.5,333.6,2.1,3.5,327.5,0.00,15.0,21.4,"23:55:28",1
